Location: Poughquag
(41.6090°N, 73.6820°W)
Time: 11:15:15
(UTC-04:00)

Envisat - Visible Passes

Search period start: 21 September 2019 00:00
Search period end: 01 October 2019 00:00
Orbit: 764 x 766 km, 98.1° (Epoch: 21 September)

Date Brightness Start Highest point End Pass type
(mag) Time Alt. Az. Time Alt. Az. Time Alt. Az.
21 Sep 4.8 19:47:30 10° SSW 19:52:05 34° W 19:56:43 10° NNW visible
23 Sep 5.7 20:14:08 10° SW 20:17:48 20° W 20:21:29 10° NW visible
24 Sep 4.3 19:35:58 10° S 19:40:47 43° W 19:45:38 10° NNW visible
25 Sep 6.3 20:42:20 10° WSW 20:43:36 11° W 20:44:53 10° WNW visible
26 Sep 5.4 20:02:18 10° SSW 20:06:26 25° W 20:10:36 10° NW visible
27 Sep 3.8 19:24:31 10° S 19:29:29 55° W 19:34:29 10° NNW visible
28 Sep 6.0 20:29:32 10° WSW 20:32:12 14° W 20:34:53 10° WNW visible
29 Sep 5.0 19:50:37 10° SSW 19:55:06 31° W 19:59:37 10° NNW visible
30 Sep 3.4 19:13:09 10° S 19:18:12 71° WSW 19:23:18 10° NNW visible
